Location: Lombard
(41.8800°N, 88.0080°W)
Time: 23:13:43
(UTC-05:00)

Tiros 1 - Pass Details

Date: 27 January 2023
Orbit: 628 x 662 km, 48.4° (Epoch: 20 March)

Event Time Altitude Azimuth Distance (km) Brightness Sun altitude
Rises 08:20:34 0° 297° (WNW) 2,959 9.9 10.6°
Reaches altitude 10° 08:22:54 10° 296° (WNW) 2,052 9.2 10.9°
Maximum altitude 08:27:38 78° 211° (SSW) 672 7.5 11.6°
Drops below altitude 10° 08:32:23 10° 125° (SE) 2,064 13.1 12.3°
Sets 08:34:44 0° 124° (SE) 2,976 12.6 12.7°
